Location: Overspoor
(51.4747°N, 5.6641°E)
Time: 23:00:48
(UTC+02:00)

NOAA 18 - Visible Passes

Search period start: 27 June 2022 00:00
Search period end: 07 July 2022 00:00
Orbit: 840 x 859 km, 98.9° (Epoch: 27 June)

Date Brightness Start Highest point End Pass type
(mag) Time Alt. Az. Time Alt. Az. Time Alt. Az.
27 Jun 6.2 23:45:55 10° S 23:51:07 42° W 23:56:23 10° NNW visible
28 Jun 5.8 23:33:39 10° S 23:39:00 52° W 23:44:26 10° NNW visible
29 Jun 5.6 23:21:27 10° S 23:26:55 64° WSW 23:32:27 10° NNW visible
30 Jun 7.6 01:07:09 10° W 01:08:42 11° W 01:10:17 10° WNW visible
30 Jun 5.4 23:09:20 10° SSE 23:14:50 78° WSW 23:20:26 10° NNW visible
01 Jul 7.5 00:53:35 10° WSW 00:56:26 14° W 00:59:19 10° NW visible
01 Jul 5.3 22:57:17 10° SSE 23:02:48 86° ENE 23:08:23 10° NNW visible
02 Jul 7.3 00:40:35 10° SW 00:44:12 18° W 00:47:52 10° NW visible
02 Jul 5.3 22:45:17 10° SSE 22:50:46 72° ENE 22:56:19 10° NNW visible
03 Jul 7.1 00:27:48 10° SW 00:31:59 22° W 00:36:12 10° NW visible
03 Jul 5.5 22:33:21 10° SE 22:38:45 59° ENE 22:44:13 10° N visible
04 Jul 6.8 00:15:12 10° SSW 00:19:48 27° W 00:24:27 10° NW visible
05 Jul 6.6 00:02:42 10° SSW 00:07:38 32° W 00:12:36 10° NNW visible
05 Jul 6.3 23:50:20 10° SSW 23:55:29 40° W 00:00:42 10° NNW visible
06 Jul 5.9 23:38:01 10° S 23:43:22 49° W 23:48:46 10° NNW visible
